« Back
NWS Peachtree City, Ga » Text Product » GA Regional Weather Roundup


Printer-friendly Version
Current Version              Previous Versions:   1  2  3  4  5  6  7  8  9  

Regional Weather Roundup

277
ASUS42 KFFC 200703
RWRGA
WEATHER ROUNDUP FOR GEORGIA
NATIONAL WEATHER SERVICE PEACHTREE CITY GA
300 AM EDT SAT SEP 20 2014

NOTE: "FAIR" INDICATES FEW OR NO CLOUDS BELOW 12,000 FEET WITH NO
SIGNIFICANT WEATHER AND/OR OBSTRUCTIONS TO VISIBILITY.

* = USE WITH CAUTION. THE STATIONS MARKED WITH AN ASTERISK MAY NOT
REPORT WEATHER SUCH AS PRECIPITATION, FOG, OR THUNDER AND ARE NOT
QUALITY CONTROLLED BY NWS.

THE REMARK "TC" DENOTES TEMPERATURE READING IN DEGREES CELSIUS.

GAZ001>058-200800-
NORTH GEORGIA

CITY           SKY/WX    TMP DP  RH WIND       PRES   REMARKS
ATLANTA        PTCLDY    68  63  84 E10       30.13F
ATHENS         CLEAR     66  62  87 E7        30.15F
CHAMBLEE       PTCLDY    67  61  81 E5        30.15S
PEACHTREE CITY PTCLDY    68  64  87 E7        30.13S
ROME           CLEAR     68  61  78 E3        30.13S
WEST ATLANTA   PTCLDY    68  63  84 NE7       30.13F
GAINESVILLE    LGT RAIN  67  60  78 E10       30.19S
CARTERSVILLE   CLEAR     68  62  81 VRB5      30.14S


CITY           SKY/WX    TMP DP  RH WIND       PRES   REMARKS
DALTON*        CLEAR     64  61  88 CALM      30.14S
$$

GAZ059>098-102>109-200800-
CENTRAL GEORGIA

CITY           SKY/WX    TMP DP  RH WIND       PRES   REMARKS
AUGUSTA-BUSH   CLEAR     68  65  90 NE8       30.10F
AUGUSTA-DANIEL CLEAR     69  65  86 NE10      30.12F
COLUMBUS       CLEAR     70  65  84 E9        30.06F
MACON          CLEAR     66  66 100 NE7       30.08F
ROBINS AFB     CLEAR     68  66  92 VRB2      30.08F


CITY           SKY/WX    TMP DP  RH WIND       PRES   REMARKS
LAGRANGE*      CLEAR     72  69  89 E5        30.09F
SYLVANIA*      PTCLDY    71  70  96 E7        30.08F
$$

GAZ099>101-110>166-200800-
SOUTH GEORGIA

CITY           SKY/WX    TMP DP  RH WIND       PRES   REMARKS
SAVANNAH       PTCLDY    72  68  87 NE9       30.03F
VALDOSTA       CLEAR     70  68  93 NE6       29.99F
ALMA           PTCLDY    70  68  93 VRB5      30.01F
ST SIMONS      CLOUDY    73  71  93 NW7       29.97F
FT STEWART     PTCLDY    70  68  91 NE9       30.01F
ALBANY         CLOUDY    70  68  93 NE9       30.05S
HUNTER AFB     PTCLDY    71  71  98 NE9       30.00F
MOODY AFB      CLEAR     69  68  95 NE7       30.00F
BRUNSWICK      CLOUDY    73  70  88 N9        29.99F


CITY           SKY/WX    TMP DP  RH WIND       PRES   REMARKS
BAINBRIDGE*    CLEAR     73  72  94 NE7       30.00F
MOULTRIE*      CLEAR     70  70 100 NE3       30.02F
VIDALIA*       MOCLDY    68  68 100 NE7       30.04F
WAYCROSS*      PTCLDY    73  71  96 NE6       30.00F
DOUGLAS*       CLOUDY    72  70  94 NE10      30.03F
$$



USA.gov is the U.S. government's official web portal to all federal, state and local government web resources and services.